Location: Pescara
(42.4670°N, 14.2170°E)
Time: 02:20:37
(UTC+02:00)

ISS - Pass Details

Date: 20 May 2021
Orbit: 417 x 422 km, 51.6° (Epoch: 14 June)

Event Time Altitude Azimuth Distance (km) Brightness Sun altitude
Rises 21:17:53 0° 266° (W) 2,358 0.9 -9.2°
Reaches altitude 10° 21:20:11 10° 279° (W) 1,497 0.1 -9.5°
Maximum altitude 21:23:06 27° 340° (NNW) 839 -1.5 -10.0°
Drops below altitude 10° 21:26:03 10° 41° (NE) 1,503 -0.9 -10.4°
Sets 21:28:22 0° 54° (NE) 2,370 -0.1 -10.7°
